contact:dominique.lefevre@mio.osupytheas.fr, maurice.libes@osupytheas.fr, didier.mallarino@osupytheas.fr
Project:EMSO http://www.emso-fr.org/EMSO-France
Depth: 2436.0 m
Title:EMSO Ligure Ouest : Data MII capteur AQUADOPP
Date,Latitude,Longitude,X_East,Y_North,Z_Up,Amplitude_X,Amplitude_Y,Amplitude_Z,Batterie,SoundSpeed,Heading,Pitch,Roll,Pressure,TIS,Speed,Direction
, degrees North, degrees East, m.s-1, m.s-1,m.s-1, 1, 1, 1, Volt, m.s-1, degree, degree, degree, dbar, degree_C, m.s-1, degree
2023-07-08T00:04:03,42.805,6.029,0.032,-0.001,-0.028,102.0,102.0,101.0,13.4,1505.2,329.0,-0.8,1.8,2471.645,13.28,0.032,91.8
2023-07-08T00:07:03,42.805,6.029,0.05,-0.03,-0.037,102.0,101.0,101.0,13.3,1505.2,339.1,-0.8,1.8,2471.596,13.28,0.058,121.0
2023-07-08T00:10:03,42.805,6.029,0.006,0.004,-0.041,101.0,101.0,101.0,13.4,1505.2,346.5,-0.8,1.8,2471.585,13.28,0.007,56.3
2023-07-08T00:13:03,42.805,6.029,0.002,0.008,-0.031,101.0,101.0,101.0,13.4,1505.2,322.6,-0.8,1.8,2471.601,13.29,0.008,14.0
2023-07-08T00:16:03,42.805,6.029,0.038,-0.012,-0.036,102.0,99.0,101.0,13.4,1505.2,331.3,-0.7,1.8,2471.603,13.29,0.039,107.5
2023-07-08T00:19:03,42.805,6.029,0.03,-0.017,-0.038,102.0,101.0,102.0,13.4,1505.2,341.2,-0.7,1.8,2471.568,13.29,0.034,119.5
2023-07-08T00:22:03,42.805,6.029,0.037,-0.017,-0.001,101.0,101.0,101.0,13.4,1505.2,342.5,-0.8,1.8,2471.59,13.29,0.04,114.7
2023-07-08T00:25:03,42.805,6.029,-0.01,-0.023,-0.086,101.0,102.0,100.0,13.4,1505.2,349.3,-0.8,1.8,2471.565,13.29,0.025,203.5
2023-07-08T00:28:03,42.805,6.029,0.03,0.009,0.02,101.0,100.0,101.0,13.4,1505.2,340.8,-0.8,1.8,2471.552,13.29,0.031,73.3
2023-07-08T00:31:03,42.805,6.029,0.029,-0.04,-0.039,101.0,100.0,101.0,13.4,1505.2,341.2,-0.8,1.8,2471.58,13.29,0.049,144.1
2023-07-08T00:34:03,42.805,6.029,0.023,-0.006,-0.017,102.0,102.0,101.0,13.3,1505.2,331.6,-0.8,1.8,2471.542,13.29,0.023,104.6
2023-07-08T00:37:03,42.805,6.029,0.017,0.014,-0.029,101.0,100.0,101.0,13.4,1505.2,343.5,-0.8,1.8,2471.584,13.29,0.022,50.5
2023-07-08T00:40:03,42.805,6.029,0.03,-0.01,-0.021,102.0,101.0,101.0,13.4,1505.2,334.4,-0.7,1.8,2471.53,13.29,0.031,108.4
2023-07-08T00:43:03,42.805,6.029,0.042,0.011,-0.022,103.0,102.0,101.0,13.4,1505.2,326.0,-0.7,1.8,2471.528,13.29,0.043,75.3
2023-07-08T00:46:03,42.805,6.029,0.014,0.002,-0.017,102.0,101.0,100.0,13.3,1505.2,332.9,-0.8,1.8,2471.551,13.29,0.014,81.9
2023-07-08T00:49:03,42.805,6.029,0.02,-0.022,-0.004,101.0,101.0,102.0,13.4,1505.2,342.7,-0.7,1.8,2471.56,13.29,0.029,137.7
2023-07-08T00:52:03,42.805,6.029,0.042,-0.032,-0.031,102.0,101.0,101.0,13.3,1505.2,340.6,-0.7,1.8,2471.551,13.29,0.052,127.3
2023-07-08T00:55:03,42.805,6.029,0.03,0.027,0.02,102.0,101.0,101.0,13.3,1505.2,322.3,-0.8,1.8,2471.513,13.29,0.04,48.0
2023-07-08T00:58:03,42.805,6.029,0.039,0.0,-0.006,101.0,101.0,101.0,13.4,1505.2,346.5,-0.8,1.9,2471.538,13.29,0.039,90.0
2023-07-08T01:04:03,42.805,6.029,0.029,-0.001,0.004,103.0,102.0,102.0,13.4,1505.2,329.3,-0.7,1.8,2471.573,13.28,0.029,92.0
2023-07-08T01:07:03,42.805,6.029,0.016,-0.014,-0.063,103.0,101.0,100.0,13.4,1505.2,346.5,-0.8,1.8,2471.562,13.28,0.021,131.2
2023-07-08T01:10:03,42.805,6.029,0.047,-0.002,-0.012,104.0,101.0,101.0,13.4,1505.2,341.5,-0.8,1.8,2471.506,13.28,0.047,92.4
2023-07-08T01:13:03,42.805,6.029,0.005,0.002,-0.022,102.0,100.0,102.0,13.3,1505.2,330.2,-0.8,1.8,2471.532,13.29,0.005,68.2
2023-07-08T01:16:03,42.805,6.029,0.015,-0.002,-0.03,102.0,101.0,100.0,13.4,1505.2,332.1,-0.7,1.8,2471.544,13.29,0.015,97.6
2023-07-08T01:19:03,42.805,6.029,0.023,-0.001,-0.025,101.0,102.0,101.0,13.3,1505.2,325.0,-0.8,1.8,2471.572,13.29,0.023,92.5
2023-07-08T01:22:03,42.805,6.029,0.01,0.008,-0.039,102.0,101.0,101.0,13.4,1505.2,328.5,-0.8,1.8,2471.562,13.29,0.012,51.3
2023-07-08T01:25:03,42.805,6.029,0.03,-0.029,-0.027,102.0,101.0,101.0,13.4,1505.2,352.8,-0.7,1.8,2471.518,13.29,0.041,134.0
2023-07-08T01:28:03,42.805,6.029,0.024,-0.016,-0.044,102.0,101.0,101.0,13.4,1505.2,347.4,-0.7,1.8,2471.527,13.29,0.028,123.7
2023-07-08T01:31:03,42.805,6.029,0.003,0.023,0.01,102.0,102.0,100.0,13.4,1505.2,329.3,-0.8,1.8,2471.529,13.29,0.023,7.4
2023-07-08T01:34:03,42.805,6.029,0.018,0.004,-0.029,101.0,101.0,101.0,13.4,1505.2,332.1,-0.8,1.8,2471.517,13.29,0.018,77.5
2023-07-08T01:37:03,42.805,6.029,0.003,-0.019,-0.06,102.0,104.0,101.0,13.3,1505.2,353.0,-0.8,1.8,2471.525,13.29,0.019,171.0
2023-07-08T01:40:03,42.805,6.029,0.025,-0.029,-0.023,102.0,101.0,101.0,13.4,1505.2,341.2,-0.8,1.8,2471.518,13.29,0.038,139.2
2023-07-08T01:43:03,42.805,6.029,0.022,-0.006,-0.028,101.0,102.0,101.0,13.3,1505.2,322.4,-0.7,1.8,2471.522,13.29,0.022,105.3
2023-07-08T01:46:03,42.805,6.029,0.013,-0.012,-0.073,102.0,101.0,101.0,13.4,1505.2,340.2,-0.7,1.8,2471.541,13.29,0.017,132.7
2023-07-08T01:49:03,42.805,6.029,0.017,-0.008,-0.029,101.0,100.0,102.0,13.4,1505.2,342.1,-0.7,1.8,2471.537,13.29,0.018,115.2
2023-07-08T01:52:03,42.805,6.029,0.023,-0.003,-0.034,100.0,102.0,101.0,13.4,1505.2,324.5,-0.8,1.8,2471.538,13.29,0.023,97.4
2023-07-08T01:55:03,42.805,6.029,0.022,-0.017,-0.048,101.0,102.0,101.0,13.3,1505.2,353.5,-0.8,1.8,2471.507,13.29,0.027,127.7
2023-07-08T01:58:03,42.805,6.029,0.007,-0.011,-0.026,100.0,101.0,101.0,13.4,1505.2,344.0,-0.8,1.8,2471.484,13.29,0.013,147.5
2023-07-08T02:04:03,42.805,6.029,0.042,-0.015,-0.035,101.0,101.0,102.0,13.3,1505.2,334.8,-0.7,1.8,2471.519,13.28,0.044,109.6
2023-07-08T02:07:03,42.805,6.029,0.054,-0.001,-0.021,101.0,101.0,101.0,13.4,1505.2,326.5,-0.7,1.8,2471.532,13.28,0.054,91.1
2023-07-08T02:10:03,42.805,6.029,0.031,-0.005,-0.01,101.0,102.0,101.0,13.3,1505.2,334.9,-0.8,1.9,2471.531,13.29,0.031,99.2
2023-07-08T02:13:03,42.805,6.029,0.024,-0.044,-0.049,101.0,101.0,101.0,13.4,1505.2,344.5,-0.7,1.8,2471.514,13.29,0.05,151.4
2023-07-08T02:16:03,42.805,6.029,0.028,0.016,-0.008,101.0,101.0,101.0,13.4,1505.2,321.9,-0.8,1.8,2471.496,13.29,0.032,60.3
2023-07-08T02:19:03,42.805,6.029,0.045,-0.026,-0.036,103.0,102.0,100.0,13.4,1505.2,350.5,-0.8,1.8,2471.487,13.29,0.051,120.0
2023-07-08T02:22:03,42.805,6.029,0.022,-0.001,-0.056,102.0,100.0,101.0,13.4,1505.2,327.8,-0.8,1.8,2471.503,13.29,0.022,92.6
2023-07-08T02:25:03,42.805,6.029,0.038,-0.013,-0.046,98.0,102.0,101.0,13.4,1505.2,329.5,-0.7,1.8,2471.508,13.29,0.04,108.9
2023-07-08T02:28:03,42.805,6.029,0.03,-0.001,-0.038,101.0,101.0,101.0,13.4,1505.2,321.6,-0.8,1.8,2471.518,13.29,0.03,91.9
2023-07-08T02:31:03,42.805,6.029,0.041,-0.024,0.009,101.0,101.0,100.0,13.4,1505.2,345.7,-0.8,1.8,2471.471,13.29,0.047,120.3
2023-07-08T02:34:03,42.805,6.029,0.027,-0.003,-0.03,102.0,103.0,100.0,13.3,1505.2,347.6,-0.7,1.8,2471.476,13.29,0.027,96.3
2023-07-08T02:37:03,42.805,6.029,0.028,-0.021,-0.066,101.0,101.0,101.0,13.4,1505.2,341.9,-0.8,1.8,2471.458,13.29,0.035,126.9
2023-07-08T02:40:03,42.805,6.029,0.031,0.0,-0.018,101.0,101.0,102.0,13.3,1505.2,330.8,-0.8,1.8,2471.457,13.29,0.03,90.0
2023-07-08T02:43:03,42.805,6.029,0.032,-0.008,-0.033,100.0,103.0,101.0,13.4,1505.2,329.8,-0.8,1.8,2471.469,13.29,0.032,104.0
2023-07-08T02:46:03,42.805,6.029,0.046,-0.004,-0.003,102.0,101.0,100.0,13.4,1505.2,340.0,-0.8,1.8,2471.476,13.29,0.046,95.0
2023-07-08T02:49:03,42.805,6.029,0.023,-0.008,0.021,100.0,102.0,102.0,13.4,1505.2,353.4,-0.8,1.8,2471.457,13.29,0.024,109.2
2023-07-08T02:52:03,42.805,6.029,0.033,-0.007,-0.027,100.0,101.0,101.0,13.4,1505.2,323.4,-0.7,1.9,2471.496,13.29,0.033,102.0
2023-07-08T02:55:03,42.805,6.029,0.046,-0.038,-0.04,102.0,101.0,101.0,13.4,1505.2,350.1,-0.8,1.8,2471.441,13.29,0.059,129.6
2023-07-08T02:58:03,42.805,6.029,0.032,0.007,-0.02,101.0,103.0,100.0,13.3,1505.2,337.2,-0.7,1.8,2471.451,13.29,0.032,77.7
2023-07-08T03:04:03,42.805,6.029,0.008,0.006,-0.062,101.0,101.0,100.0,13.4,1505.2,325.0,-0.7,1.8,2471.493,13.28,0.01,53.1
2023-07-08T03:07:03,42.805,6.029,0.026,-0.002,-0.04,101.0,101.0,102.0,13.4,1505.2,330.2,-0.8,1.8,2471.515,13.28,0.026,94.4
2023-07-08T03:10:03,42.805,6.029,0.021,-0.019,-0.034,99.0,102.0,102.0,13.4,1505.2,334.2,-0.8,1.8,2471.458,13.28,0.028,132.1
2023-07-08T03:13:03,42.805,6.029,0.034,-0.016,-0.052,102.0,99.0,101.0,13.4,1505.2,328.8,-0.8,1.8,2471.434,13.29,0.037,115.2
2023-07-08T03:16:03,42.805,6.029,0.031,0.0,-0.023,101.0,101.0,101.0,13.4,1505.2,351.4,-0.7,1.8,2471.438,13.29,0.03,90.0
2023-07-08T03:19:03,42.805,6.029,0.027,-0.02,-0.03,100.0,102.0,101.0,13.4,1505.2,332.5,-0.7,1.8,2471.453,13.29,0.033,126.5
2023-07-08T03:22:03,42.805,6.029,0.051,-0.016,-0.027,101.0,102.0,102.0,13.4,1505.2,338.5,-0.8,1.8,2471.427,13.29,0.053,107.4
2023-07-08T03:25:03,42.805,6.029,0.034,0.0,-0.007,102.0,101.0,101.0,13.4,1505.2,334.3,-0.8,1.8,2471.428,13.29,0.034,90.0
2023-07-08T03:28:03,42.805,6.029,0.024,-0.016,-0.048,102.0,102.0,101.0,13.3,1505.2,339.1,-0.7,1.8,2471.43,13.29,0.028,123.7
2023-07-08T03:31:03,42.805,6.029,0.011,-0.015,-0.064,99.0,102.0,101.0,13.3,1505.2,330.7,-0.8,1.8,2471.479,13.29,0.018,143.7
2023-07-08T03:34:03,42.805,6.029,0.019,-0.008,-0.024,102.0,100.0,100.0,13.4,1505.2,349.7,-0.8,1.8,2471.411,13.29,0.02,112.8
2023-07-08T03:37:03,42.805,6.029,0.028,-0.011,-0.013,102.0,102.0,100.0,13.4,1505.2,341.1,-0.8,1.8,2471.407,13.29,0.03,111.4
2023-07-08T03:40:03,42.805,6.029,0.03,-0.008,-0.012,99.0,102.0,102.0,13.4,1505.2,348.2,-0.7,1.9,2471.416,13.29,0.031,104.9
2023-07-08T03:43:03,42.805,6.029,0.05,-0.01,-0.031,101.0,101.0,102.0,13.4,1505.2,332.1,-0.8,1.8,2471.423,13.29,0.05,101.3
2023-07-08T03:46:03,42.805,6.029,0.015,-0.016,-0.011,100.0,101.0,102.0,13.3,1505.2,337.8,-0.8,1.8,2471.433,13.29,0.021,136.9
2023-07-08T03:49:03,42.805,6.029,0.032,-0.001,-0.028,101.0,101.0,101.0,13.4,1505.2,332.9,-0.8,1.8,2471.425,13.29,0.032,91.8
2023-07-08T03:52:03,42.805,6.029,0.017,-0.011,-0.073,101.0,101.0,101.0,13.3,1505.2,328.6,-0.8,1.8,2471.406,13.29,0.02,122.9
2023-07-08T03:55:03,42.805,6.029,0.046,-0.016,-0.041,101.0,100.0,101.0,13.4,1505.2,340.0,-0.8,1.8,2471.426,13.29,0.048,109.2
2023-07-08T03:58:03,42.805,6.029,0.044,-0.025,-0.057,101.0,102.0,101.0,13.4,1505.2,331.6,-0.7,1.8,2471.401,13.29,0.05,119.6
2023-07-08T04:04:03,42.805,6.029,0.024,-0.012,-0.038,102.0,102.0,101.0,13.3,1505.2,349.1,-0.8,1.8,2471.43,13.28,0.026,116.6
2023-07-08T04:07:03,42.805,6.029,0.046,-0.012,-0.027,102.0,102.0,101.0,13.4,1505.2,336.1,-0.8,1.8,2471.451,13.28,0.047,104.6
2023-07-08T04:10:03,42.805,6.029,0.036,-0.02,-0.048,101.0,102.0,101.0,13.4,1505.2,348.6,-0.8,1.8,2471.447,13.28,0.041,119.1
2023-07-08T04:13:03,42.805,6.029,0.044,-0.018,-0.029,102.0,102.0,100.0,13.4,1505.2,339.5,-0.7,1.8,2471.472,13.29,0.047,112.2
2023-07-08T04:16:03,42.805,6.029,0.007,-0.026,-0.053,101.0,100.0,102.0,13.4,1505.2,354.4,-0.7,1.8,2471.449,13.29,0.026,164.9
2023-07-08T04:19:03,42.805,6.029,0.027,-0.032,-0.059,102.0,101.0,101.0,13.4,1505.2,339.7,-0.8,1.8,2471.423,13.29,0.041,139.8
2023-07-08T04:22:03,42.805,6.029,0.039,-0.014,-0.029,102.0,101.0,102.0,13.4,1505.2,332.9,-0.7,1.8,2471.384,13.29,0.041,109.7
2023-07-08T04:25:03,42.805,6.029,0.039,-0.018,-0.027,101.0,102.0,99.0,13.4,1505.2,339.3,-0.7,1.8,2471.419,13.29,0.042,114.8
2023-07-08T04:28:03,42.805,6.029,0.019,0.022,0.009,102.0,101.0,101.0,13.4,1505.2,321.4,-0.8,1.8,2471.424,13.29,0.029,40.8
2023-07-08T04:31:03,42.805,6.029,0.029,-0.002,-0.024,100.0,100.0,102.0,13.4,1505.2,344.8,-0.7,1.8,2471.441,13.29,0.029,93.9
2023-07-08T04:34:03,42.805,6.029,0.028,-0.017,-0.029,101.0,101.0,101.0,13.3,1505.2,332.5,-0.8,1.8,2471.373,13.29,0.032,121.3
2023-07-08T04:37:03,42.805,6.029,0.03,-0.004,-0.02,102.0,101.0,101.0,13.4,1505.2,322.9,-0.8,1.8,2471.392,13.29,0.03,97.6
2023-07-08T04:40:03,42.805,6.029,0.03,-0.017,-0.048,102.0,101.0,101.0,13.3,1505.2,337.9,-0.8,1.8,2471.377,13.29,0.034,119.5
2023-07-08T04:43:03,42.805,6.029,0.026,0.003,-0.019,101.0,101.0,101.0,13.4,1505.2,324.2,-0.8,1.8,2471.397,13.29,0.026,83.4
2023-07-08T04:46:03,42.805,6.029,0.019,-0.009,-0.039,102.0,102.0,100.0,13.4,1505.2,348.6,-0.7,1.8,2471.362,13.29,0.021,115.3
2023-07-08T04:49:03,42.805,6.029,0.057,-0.031,-0.024,100.0,103.0,101.0,13.4,1505.2,327.1,-0.7,1.8,2471.343,13.29,0.064,118.5
2023-07-08T04:52:03,42.805,6.029,0.027,-0.022,-0.035,101.0,101.0,101.0,13.3,1505.2,351.5,-0.8,1.8,2471.396,13.29,0.034,129.2
2023-07-08T04:55:03,42.805,6.029,0.031,0.004,-0.041,101.0,102.0,100.0,13.4,1505.2,326.8,-0.8,1.8,2471.367,13.29,0.031,82.7
2023-07-08T04:58:03,42.805,6.029,0.021,0.005,-0.021,100.0,102.0,101.0,13.4,1505.2,328.0,-0.7,1.8,2471.376,13.29,0.021,76.6
2023-07-08T05:04:03,42.805,6.029,0.029,-0.009,-0.033,102.0,100.0,101.0,13.3,1505.2,344.3,-0.8,1.9,2471.424,13.28,0.03,107.2
2023-07-08T05:07:03,42.805,6.029,0.018,-0.004,-0.031,101.0,100.0,101.0,13.4,1505.2,340.0,-0.8,1.8,2471.428,13.28,0.018,102.5
2023-07-08T05:10:03,42.805,6.029,0.013,-0.007,-0.026,101.0,100.0,101.0,13.4,1505.2,326.5,-0.8,1.8,2471.399,13.28,0.014,118.3
2023-07-08T05:13:03,42.805,6.029,0.015,-0.005,-0.032,102.0,100.0,100.0,13.4,1505.2,343.0,-0.7,1.8,2471.391,13.28,0.015,108.4
2023-07-08T05:16:03,42.805,6.029,0.038,-0.031,-0.045,102.0,103.0,101.0,13.3,1505.2,335.0,-0.8,1.8,2471.392,13.29,0.049,129.2
2023-07-08T05:19:03,42.805,6.029,0.021,0.005,0.008,102.0,101.0,101.0,13.4,1505.2,329.2,-0.7,1.8,2471.361,13.29,0.021,76.6
2023-07-08T05:22:03,42.805,6.029,0.052,-0.004,-0.018,100.0,101.0,102.0,13.4,1505.2,340.2,-0.8,1.8,2471.374,13.29,0.052,94.4
2023-07-08T05:25:03,42.805,6.029,0.043,-0.028,-0.036,102.0,101.0,101.0,13.3,1505.2,340.8,-0.8,1.8,2471.358,13.29,0.051,123.1
2023-07-08T05:28:03,42.805,6.029,0.05,-0.004,-0.039,102.0,101.0,100.0,13.4,1505.2,323.4,-0.7,1.8,2471.363,13.29,0.05,94.6
2023-07-08T05:31:03,42.805,6.029,0.038,0.011,-0.002,102.0,102.0,101.0,13.3,1505.2,327.2,-0.7,1.8,2471.352,13.29,0.039,73.9
2023-07-08T05:34:03,42.805,6.029,0.011,-0.025,-0.072,101.0,101.0,101.0,13.3,1505.2,347.1,-0.7,1.8,2471.312,13.29,0.027,156.3
2023-07-08T05:37:03,42.805,6.029,0.06,-0.009,-0.024,102.0,100.0,101.0,13.4,1505.2,321.6,-0.8,1.8,2471.338,13.29,0.06,98.5
2023-07-08T05:40:03,42.805,6.029,0.038,-0.018,-0.047,100.0,102.0,101.0,13.4,1505.2,332.1,-0.8,1.8,2471.37,13.29,0.042,115.3
2023-07-08T05:43:03,42.805,6.029,0.043,-0.022,-0.049,101.0,101.0,101.0,13.4,1505.2,335.4,-0.7,1.8,2471.377,13.29,0.048,117.1
2023-07-08T05:46:03,42.805,6.029,0.022,-0.009,-0.031,100.0,101.0,101.0,13.4,1505.2,339.3,-0.7,1.8,2471.342,13.29,0.023,112.2
2023-07-08T05:49:03,42.805,6.029,0.032,-0.013,0.002,102.0,102.0,101.0,13.4,1505.2,330.8,-0.8,1.8,2471.366,13.29,0.034,112.1
2023-07-08T05:52:03,42.805,6.029,0.044,0.004,-0.002,103.0,100.0,100.0,13.3,1505.2,334.2,-0.8,1.8,2471.351,13.29,0.044,84.8
2023-07-08T05:55:03,42.805,6.029,0.051,-0.012,-0.036,102.0,102.0,100.0,13.4,1505.2,336.6,-0.8,1.8,2471.37,13.29,0.052,103.2
2023-07-08T05:58:03,42.805,6.029,0.016,0.005,-0.036,101.0,100.0,101.0,13.4,1505.2,335.0,-0.8,1.8,2471.35,13.29,0.016,72.6
2023-07-08T06:04:03,42.805,6.029,0.036,-0.01,-0.018,101.0,101.0,101.0,13.4,1505.2,326.0,-0.8,1.8,2471.38,13.28,0.037,105.5
2023-07-08T06:07:03,42.805,6.029,0.04,-0.021,-0.023,102.0,101.0,101.0,13.4,1505.2,335.5,-0.7,1.9,2471.384,13.28,0.045,117.7
2023-07-08T06:10:03,42.805,6.029,0.045,-0.027,-0.033,102.0,102.0,102.0,13.4,1505.2,333.0,-0.7,1.8,2471.357,13.28,0.052,121.0
2023-07-08T06:13:03,42.805,6.029,0.037,-0.009,-0.036,102.0,100.0,102.0,13.4,1505.2,336.5,-0.7,1.8,2471.371,13.28,0.038,103.7
2023-07-08T06:16:03,42.805,6.029,0.044,-0.016,-0.058,102.0,102.0,101.0,13.4,1505.2,341.5,-0.8,1.8,2471.408,13.29,0.046,110.0
2023-07-08T06:19:03,42.805,6.029,0.017,0.014,-0.03,102.0,101.0,100.0,13.4,1505.2,333.8,-0.8,1.8,2471.365,13.29,0.022,50.5
2023-07-08T06:22:03,42.805,6.029,0.012,0.013,-0.009,103.0,103.0,100.0,13.4,1505.2,337.7,-0.8,1.8,2471.387,13.29,0.017,42.7
2023-07-08T06:25:03,42.805,6.029,0.043,-0.012,0.0,102.0,100.0,101.0,13.3,1505.2,327.9,-0.8,1.9,2471.372,13.29,0.044,105.6
2023-07-08T06:28:03,42.805,6.029,0.037,-0.014,-0.043,102.0,101.0,100.0,13.4,1505.2,322.9,-0.7,1.8,2471.351,13.29,0.039,110.7
2023-07-08T06:31:03,42.805,6.029,0.018,-0.018,-0.024,103.0,100.0,100.0,13.4,1505.2,348.6,-0.8,1.8,2471.337,13.29,0.025,135.0
2023-07-08T06:34:03,42.805,6.029,0.036,-0.023,-0.067,102.0,101.0,100.0,13.4,1505.2,338.8,-0.8,1.8,2471.319,13.29,0.042,122.6
2023-07-08T06:37:03,42.805,6.029,0.021,0.0,-0.031,101.0,101.0,100.0,13.3,1505.2,334.2,-0.8,1.9,2471.34,13.29,0.021,90.0
2023-07-08T06:40:03,42.805,6.029,0.036,-0.016,-0.03,104.0,102.0,100.0,13.4,1505.2,344.9,-0.8,1.9,2471.358,13.29,0.039,114.0
2023-07-08T06:43:03,42.805,6.029,0.01,-0.007,-0.043,102.0,102.0,100.0,13.3,1505.2,350.5,-0.7,1.8,2471.356,13.29,0.012,125.0
2023-07-08T06:46:03,42.805,6.029,0.043,0.004,-0.028,101.0,101.0,101.0,13.4,1505.2,328.4,-0.8,1.8,2471.363,13.29,0.043,84.7
2023-07-08T06:49:03,42.805,6.029,0.029,-0.022,0.005,101.0,101.0,101.0,13.4,1505.2,350.3,-0.8,1.8,2471.359,13.29,0.036,127.2
2023-07-08T06:52:03,42.805,6.029,0.039,0.009,-0.009,101.0,102.0,101.0,13.3,1505.2,338.8,-0.7,1.8,2471.399,13.29,0.04,77.0
2023-07-08T06:55:03,42.805,6.029,0.043,-0.048,-0.048,101.0,102.0,101.0,13.3,1505.2,342.8,-0.8,1.8,2471.347,13.29,0.064,138.1
2023-07-08T06:58:03,42.805,6.029,0.042,-0.018,-0.021,105.0,102.0,101.0,13.3,1505.2,336.6,-0.8,1.8,2471.347,13.29,0.045,113.2
2023-07-08T07:04:03,42.805,6.029,0.031,-0.014,-0.035,102.0,102.0,101.0,13.4,1505.2,329.6,-0.8,1.8,2471.385,13.28,0.034,114.3
2023-07-08T07:07:03,42.805,6.029,0.033,-0.038,-0.063,102.0,101.0,101.0,13.4,1505.2,348.6,-0.8,1.8,2471.402,13.28,0.05,139.0
2023-07-08T07:10:03,42.805,6.029,0.039,-0.016,-0.046,103.0,101.0,101.0,13.4,1505.2,324.2,-0.8,1.8,2471.421,13.28,0.042,112.3
2023-07-08T07:13:03,42.805,6.029,0.029,-0.023,-0.062,100.0,103.0,101.0,13.4,1505.2,332.9,-0.8,1.8,2471.391,13.29,0.037,128.4
2023-07-08T07:16:03,42.805,6.029,0.027,-0.018,-0.033,101.0,101.0,101.0,13.3,1505.2,343.0,-0.8,1.8,2471.378,13.29,0.032,123.7
2023-07-08T07:19:03,42.805,6.029,0.015,-0.007,-0.033,102.0,101.0,101.0,13.4,1505.2,330.3,-0.7,1.8,2471.395,13.29,0.016,115.0
2023-07-08T07:22:03,42.805,6.029,0.015,0.033,-0.01,101.0,100.0,101.0,13.4,1505.2,327.8,-0.8,1.8,2471.38,13.29,0.036,24.4
2023-07-08T07:25:03,42.805,6.029,0.043,-0.031,-0.039,103.0,101.0,100.0,13.4,1505.2,330.3,-0.8,1.8,2471.393,13.29,0.053,125.8
2023-07-08T07:28:03,42.805,6.029,0.032,-0.033,-0.075,101.0,101.0,101.0,13.4,1505.2,342.1,-0.8,1.8,2471.412,13.29,0.045,135.9
2023-07-08T07:31:03,42.805,6.029,0.035,-0.002,-0.008,100.0,101.0,101.0,13.3,1505.2,337.7,-0.7,1.8,2471.368,13.29,0.035,93.3
2023-07-08T07:34:03,42.805,6.029,0.041,-0.009,-0.002,103.0,101.0,101.0,13.4,1505.2,335.0,-0.8,1.8,2471.391,13.29,0.041,102.4
2023-07-08T07:37:03,42.805,6.029,0.061,-0.013,-0.006,100.0,100.0,101.0,13.4,1505.2,326.0,-0.7,1.8,2471.399,13.29,0.062,102.0
2023-07-08T07:40:03,42.805,6.029,0.033,-0.025,-0.053,101.0,102.0,101.0,13.4,1505.2,330.6,-0.7,1.8,2471.372,13.29,0.041,127.1
2023-07-08T07:43:03,42.805,6.029,0.034,-0.021,-0.058,101.0,102.0,101.0,13.4,1505.2,333.9,-0.7,1.8,2471.383,13.29,0.039,121.7
2023-07-08T07:46:03,42.805,6.029,0.051,-0.01,-0.015,101.0,102.0,101.0,13.4,1505.2,328.2,-0.7,1.8,2471.379,13.29,0.051,101.1
2023-07-08T07:49:03,42.805,6.029,0.041,-0.007,-0.018,104.0,102.0,101.0,13.3,1505.2,339.7,-0.8,1.9,2471.413,13.29,0.041,99.7
2023-07-08T07:52:03,42.805,6.029,0.015,-0.002,-0.028,103.0,102.0,101.0,13.4,1505.2,320.4,-0.7,1.8,2471.38,13.29,0.015,97.6
2023-07-08T07:55:03,42.805,6.029,0.009,0.005,-0.022,102.0,100.0,102.0,13.4,1505.2,327.9,-0.7,1.8,2471.379,13.29,0.01,60.9
2023-07-08T07:58:03,42.805,6.029,0.032,-0.026,-0.031,101.0,102.0,101.0,13.4,1505.2,331.7,-0.8,1.8,2471.389,13.29,0.041,129.1
2023-07-08T08:04:03,42.805,6.029,0.017,0.002,-0.023,101.0,101.0,100.0,13.4,1505.2,326.8,-0.8,1.8,2471.452,13.28,0.017,83.3
2023-07-08T08:07:03,42.805,6.029,0.043,-0.015,-0.026,102.0,101.0,101.0,13.4,1505.2,349.1,-0.8,1.8,2471.451,13.28,0.045,109.2
2023-07-08T08:10:03,42.805,6.029,0.008,-0.005,-0.039,102.0,101.0,101.0,13.4,1505.2,324.3,-0.8,1.8,2471.42,13.28,0.009,122.0
2023-07-08T08:13:03,42.805,6.029,0.046,-0.045,-0.046,102.0,100.0,101.0,13.4,1505.2,338.5,-0.7,1.8,2471.458,13.28,0.064,134.4
2023-07-08T08:16:03,42.805,6.029,0.036,-0.03,-0.034,102.0,101.0,101.0,13.4,1505.2,352.0,-0.8,1.8,2471.431,13.29,0.046,129.8
2023-07-08T08:19:03,42.805,6.029,0.031,-0.008,-0.018,101.0,101.0,102.0,13.3,1505.2,337.7,-0.7,1.8,2471.454,13.29,0.032,104.5
2023-07-08T08:22:03,42.805,6.029,0.026,-0.01,-0.038,101.0,101.0,101.0,13.4,1505.2,337.8,-0.7,1.9,2471.439,13.29,0.027,111.0
2023-07-08T08:25:03,42.805,6.029,0.039,-0.022,-0.055,102.0,101.0,101.0,13.3,1505.2,333.4,-0.8,1.8,2471.415,13.29,0.044,119.4
2023-07-08T08:28:03,42.805,6.029,0.032,-0.022,-0.05,100.0,102.0,101.0,13.4,1505.2,325.9,-0.7,1.8,2471.482,13.29,0.038,124.5
2023-07-08T08:31:03,42.805,6.029,0.033,-0.018,-0.016,102.0,103.0,101.0,13.4,1505.2,344.2,-0.8,1.8,2471.418,13.29,0.037,118.6
2023-07-08T08:34:03,42.805,6.029,0.043,-0.002,-0.026,102.0,102.0,101.0,13.4,1505.2,328.3,-0.8,1.8,2471.392,13.29,0.043,92.7
2023-07-08T08:37:03,42.805,6.029,0.042,-0.054,-0.063,102.0,101.0,101.0,13.4,1505.2,329.8,-0.8,1.8,2471.427,13.29,0.068,142.1
2023-07-08T08:40:03,42.805,6.029,0.025,-0.012,-0.041,101.0,101.0,101.0,13.4,1505.2,327.1,-0.8,1.8,2471.443,13.29,0.027,115.6
2023-07-08T08:43:03,42.805,6.029,0.045,-0.021,-0.014,102.0,101.0,101.0,13.4,1505.2,337.2,-0.8,1.8,2471.427,13.29,0.049,115.0
2023-07-08T08:46:03,42.805,6.029,0.019,0.021,-0.015,102.0,101.0,100.0,13.4,1505.2,323.6,-0.7,1.8,2471.455,13.29,0.028,42.1
2023-07-08T08:49:03,42.805,6.029,0.02,-0.019,-0.044,101.0,101.0,102.0,13.4,1505.2,338.2,-0.8,1.8,2471.401,13.29,0.027,133.5
2023-07-08T08:52:03,42.805,6.029,0.035,0.001,-0.034,102.0,101.0,101.0,13.4,1505.2,321.4,-0.8,1.8,2471.43,13.29,0.035,88.4
2023-07-08T08:55:03,42.805,6.029,0.044,-0.019,-0.044,101.0,102.0,100.0,13.4,1505.2,333.8,-0.8,1.8,2471.405,13.29,0.047,113.4
2023-07-08T08:58:03,42.805,6.029,0.0,0.012,-0.041,101.0,102.0,100.0,13.3,1505.2,321.0,-0.8,1.8,2471.423,13.29,0.012,0.0
2023-07-08T09:04:03,42.805,6.029,0.05,0.002,-0.034,102.0,101.0,100.0,13.4,1505.2,324.1,-0.8,1.8,2471.48,13.28,0.05,87.7
2023-07-08T09:07:03,42.805,6.029,0.046,0.0,-0.027,100.0,102.0,101.0,13.4,1505.2,327.1,-0.8,1.8,2471.465,13.28,0.046,90.0
2023-07-08T09:10:03,42.805,6.029,0.042,-0.019,-0.027,101.0,101.0,101.0,13.3,1505.2,341.2,-0.8,1.8,2471.483,13.28,0.046,114.3
2023-07-08T09:13:03,42.805,6.029,0.06,-0.004,-0.023,102.0,102.0,100.0,13.4,1505.2,321.6,-0.8,1.8,2471.445,13.29,0.06,93.8
2023-07-08T09:16:03,42.805,6.029,0.039,0.003,-0.001,101.0,100.0,100.0,13.4,1505.2,337.2,-0.7,1.8,2471.489,13.29,0.039,85.6
2023-07-08T09:19:03,42.805,6.029,0.036,-0.044,-0.053,101.0,101.0,100.0,13.4,1505.2,349.5,-0.7,1.8,2471.507,13.29,0.056,140.7
2023-07-08T09:22:03,42.805,6.029,0.046,-0.01,-0.01,101.0,101.0,101.0,13.4,1505.2,326.9,-0.8,1.8,2471.452,13.29,0.047,102.3
2023-07-08T09:25:03,42.805,6.029,0.052,-0.017,0.026,101.0,102.0,100.0,13.4,1505.2,350.7,-0.8,1.8,2471.45,13.29,0.054,108.1
2023-07-08T09:28:03,42.805,6.029,0.038,0.001,-0.012,100.0,101.0,101.0,13.4,1505.2,343.6,-0.8,1.8,2471.445,13.29,0.038,88.5
2023-07-08T09:31:03,42.805,6.029,0.045,-0.02,-0.031,102.0,101.0,101.0,13.4,1505.2,332.5,-0.8,1.8,2471.429,13.29,0.049,114.0
2023-07-08T09:34:03,42.805,6.029,0.032,-0.02,-0.015,101.0,101.0,101.0,13.4,1505.2,323.3,-0.8,1.8,2471.419,13.29,0.037,122.0
2023-07-08T09:37:03,42.805,6.029,0.021,0.005,-0.013,101.0,102.0,100.0,13.4,1505.2,328.4,-0.8,1.8,2471.464,13.29,0.021,76.6
2023-07-08T09:40:03,42.805,6.029,0.042,-0.019,-0.027,102.0,101.0,100.0,13.4,1505.2,328.3,-0.7,1.8,2471.447,13.29,0.046,114.3
2023-07-08T09:43:03,42.805,6.029,0.031,0.004,-0.022,101.0,101.0,100.0,13.3,1505.2,329.7,-0.8,1.8,2471.46,13.29,0.031,82.7
2023-07-08T09:46:03,42.805,6.029,0.057,-0.018,-0.009,100.0,103.0,101.0,13.4,1505.2,332.5,-0.8,1.8,2471.461,13.29,0.059,107.5
2023-07-08T09:49:03,42.805,6.029,0.051,-0.013,-0.017,102.0,102.0,100.0,13.3,1505.2,324.6,-0.8,1.8,2471.456,13.29,0.052,104.3
2023-07-08T09:52:03,42.805,6.029,0.026,-0.014,-0.011,102.0,101.0,101.0,13.4,1505.2,339.3,-0.8,1.8,2471.444,13.29,0.029,118.3
2023-07-08T09:55:03,42.805,6.029,0.038,0.003,-0.025,102.0,102.0,101.0,13.4,1505.2,327.1,-0.8,1.8,2471.45,13.29,0.038,85.5